DW9864 Weather Reports


Display with metric or nautical units.
time (UTC)temp
F
wind
direction
speed
MPH
gust
MPH
rain 1hr
in
rain 24hr
in
rain mn
in
humidity
%
barometer
mb
20260508151003 70 172 5.0 12.0 0.00 0.00 0.00 47 1009.9
20260508150503 70 178 4.0 10.0 0.00 0.00 0.00 47 1009.8
20260508150003 70 179 4.0 10.0 0.00 0.00 0.00 47 1009.9
20260508145517 70 171 4.0 8.0 0.00 0.00 0.00 48 1010.0
20260508145003 70 145 3.0 7.0 0.00 0.00 0.00 47 1010.1
20260508144503 70 155 3.0 8.0 0.00 0.00 0.00 47 1010.1
20260508144003 70 164 3.0 8.0 0.00 0.00 0.00 47 1010.1
20260508143503 70 146 3.0 7.0 0.00 0.00 0.00 46 1010.1
20260508143003 71 124 2.0 7.0 0.00 0.00 0.00 45 1010.2
20260508142503 70 129 3.0 11.0 0.00 0.00 0.00 47 1010.2
20260508142003 70 149 5.0 11.0 0.00 0.00 0.00 46 1010.2
20260508141503 70 161 5.0 13.0 0.00 0.00 0.00 46 1010.2
20260508141004 70 166 6.0 17.0 0.00 0.00 0.00 46 1010.3
20260508140503 70 173 6.0 17.0 0.00 0.00 0.00 45 1010.3
20260508140003 70 178 4.0 13.0 0.00 0.00 0.00 48 1010.3
20260508135503 70 173 4.0 7.0 0.00 0.00 0.00 50 1010.3
20260508135017 69 161 5.0 8.0 0.00 0.00 0.00 49 1010.4
20260508134503 69 152 4.0 8.0 0.00 0.00 0.00 49 1010.4
20260508134003 69 178 4.0 8.0 0.00 0.00 0.00 49 1010.4
20260508133503 69 194 4.0 10.0 0.00 0.00 0.00 50 1010.4
20260508133003 69 194 5.0 10.0 0.00 0.00 0.00 50 1010.4
20260508132503 69 193 5.0 9.0 0.00 0.00 0.00 50 1010.4
20260508132003 69 184 5.0 13.0 0.00 0.00 0.00 49 1010.4
20260508131503 69 177 6.0 14.0 0.00 0.00 0.00 49 1010.5
20260508131017 69 177 5.0 14.0 0.00 0.00 0.00 49 1010.4
20260508130518 69 186 5.0 12.0 0.00 0.00 0.00 49 1010.4
20260508130003 68 181 6.0 12.0 0.00 0.00 0.00 50 1010.5
20260508125503 68 163 7.0 13.0 0.00 0.00 0.00 49 1010.5
20260508125003 68 165 7.0 15.0 0.00 0.00 0.00 49 1010.5
20260508124503 68 178 7.0 15.0 0.00 0.00 0.00 49 1010.5
20260508124017 69 180 7.0 14.0 0.00 0.00 0.00 49 1010.6
20260508123503 69 179 7.0 13.0 0.00 0.00 0.00 48 1010.5
20260508123017 69 184 6.0 13.0 0.00 0.00 0.00 49 1010.4
20260508122503 69 169 8.0 17.0 0.00 0.00 0.00 50 1010.4
20260508122017 69 171 8.0 17.0 0.00 0.00 0.00 49 1010.4
20260508121503 69 180 7.0 16.0 0.00 0.00 0.00 49 1010.5
20260508121014 69 180 7.0 15.0 0.00 0.00 0.00 50 1010.4
20260508120503 69 182 8.0 16.0 0.00 0.00 0.00 50 1010.4
20260508120004 69 192 8.0 16.0 0.00 0.00 0.00 50 1010.3
20260508115503 69 195 7.0 15.0 0.00 0.00 0.00 51 1010.3
20260508115003 69 183 7.0 14.0 0.00 0.00 0.00 51 1010.3
20260508114503 69 184 7.0 15.0 0.00 0.00 0.00 50 1010.2
20260508114003 69 179 8.0 17.0 0.00 0.00 0.00 50 1010.3
20260508113503 69 181 8.0 17.0 0.00 0.00 0.00 51 1010.3
20260508113004 69 180 7.0 17.0 0.00 0.00 0.00 50 1010.2
20260508112503 69 168 6.0 11.0 0.00 0.00 0.00 53 1010.3
20260508112003 69 167 5.0 11.0 0.00 0.00 0.00 52 1010.2
20260508111517 69 180 4.0 10.0 0.00 0.00 0.00 52 1010.3
20260508111003 69 176 5.0 13.0 0.00 0.00 0.00 53 1010.2
20260508110503 68 159 5.0 13.0 0.00 0.00 0.00 51 1010.3
20260508110003 69 164 3.0 9.0 0.00 0.00 0.00 53 1010.2
20260508105504 68 190 4.0 12.0 0.00 0.00 0.00 53 1010.3
20260508105003 68 195 5.0 12.0 0.00 0.00 0.00 53 1010.4
20260508104503 68 177 4.0 9.0 0.00 0.00 0.00 52 1010.4
20260508104017 68 175 5.0 10.0 0.00 0.00 0.00 53 1010.3
20260508103503 68 185 6.0 12.0 0.00 0.00 0.00 52 1010.4
20260508103003 68 190 6.0 12.0 0.00 0.00 0.00 52 1010.4
20260508102517 68 189 6.0 12.0 0.00 0.00 0.00 51 1010.4
20260508102017 68 172 5.0 12.0 0.00 0.00 0.00 52 1010.5
20260508101503 68 182 5.0 10.0 0.00 0.00 0.00 54 1010.4
20260508101003 67 182 6.0 11.0 0.00 0.00 0.00 54 1010.6
20260508100503 67 192 7.0 15.0 0.00 0.00 0.00 54 1010.6
20260508100003 67 198 7.0 15.0 0.00 0.00 0.00 54 1010.7
20260508095503 67 183 8.0 17.0 0.00 0.00 0.00 56 1010.9
20260508095004 66 179 9.0 17.0 0.00 0.00 0.00 56 1010.8
20260508094503 66 184 10.0 23.0 0.00 0.00 0.00 55 1010.8
20260508094003 66 184 11.0 23.0 0.00 0.00 0.00 56 1010.8
20260508093517 66 184 11.0 20.0 0.00 0.00 0.00 56 1010.9
20260508093017 66 187 9.0 17.0 0.00 0.00 0.00 57 1010.9
20260508092503 66 179 9.0 17.0 0.00 0.00 0.00 57 1011.0
20260508092017 66 175 10.0 18.0 0.00 0.00 0.00 57 1011.0
20260508091504 66 183 11.0 24.0 0.00 0.00 0.00 57 1011.2
20260508091003 66 188 10.0 24.0 0.00 0.00 0.00 57 1011.1
20260508090503 66 191 9.0 16.0 0.00 0.00 0.00 58 1010.8
20260508090004 66 192 8.0 15.0 0.00 0.00 0.00 58 1010.8
20260508085503 65 185 9.0 16.0 0.00 0.00 0.00 59 1010.9
20260508085003 65 183 8.0 16.0 0.00 0.00 0.00 58 1010.9
20260508084503 65 177 6.0 15.0 0.00 0.00 0.00 59 1010.9
20260508084017 65 176 8.0 16.0 0.00 0.00 0.00 60 1010.9
20260508083503 65 182 8.0 16.0 0.00 0.00 0.00 59 1011.0
20260508083003 65 192 8.0 15.0 0.00 0.00 0.00 59 1011.1
20260508082503 65 195 8.0 15.0 0.00 0.00 0.00 59 1011.1
20260508082003 65 194 8.0 15.0 0.00 0.00 0.00 60 1011.1
20260508081503 65 202 9.0 15.0 0.00 0.00 0.00 59 1011.1
20260508081017 65 201 9.0 16.0 0.00 0.00 0.00 59 1011.0
20260508080503 65 194 8.0 17.0 0.00 0.00 0.00 59 1010.9
20260508080003 65 197 9.0 18.0 0.00 0.00 0.00 60 1010.8
20260508075517 64 196 9.0 18.0 0.00 0.00 0.00 59 1010.7
20260508075003 64 189 9.0 18.0 0.00 0.00 0.00 60 1010.7
20260508074503 64 188 10.0 18.0 0.00 0.00 0.00 60 1010.8
20260508074003 64 188 10.0 20.0 0.00 0.00 0.00 60 1010.7
20260508073503 64 190 9.0 20.0 0.00 0.00 0.00 60 1010.8
20260508073003 64 189 10.0 22.0 0.00 0.00 0.00 60 1010.8
20260508072503 64 190 10.0 22.0 0.00 0.00 0.00 60 1010.9
20260508072003 64 192 9.0 20.0 0.00 0.00 0.00 60 1010.8
20260508071503 63 196 9.0 20.0 0.00 0.00 0.00 61 1010.7
20260508071003 63 204 8.0 18.0 0.00 0.00 0.00 61 1010.7
20260508070503 63 201 8.0 16.0 0.00 0.00 0.00 61 1010.7
20260508070003 63 194 7.0 12.0 0.00 0.00 0.00 61 1010.9
20260508065503 63 178 7.0 14.0 0.00 0.00 0.00 61 1010.7
20260508065003 63 190 7.0 14.0 0.00 0.00 0.00 61 1010.6
20260508064503 62 205 7.0 14.0 0.00 0.00 0.00 62 1010.6
20260508064003 62 195 7.0 14.0 0.00 0.00 0.00 61 1010.7
20260508063503 62 194 7.0 14.0 0.00 0.00 0.00 61 1010.7
20260508063017 62 199 7.0 13.0 0.00 0.00 0.00 62 1010.5
20260508062517 62 197 8.0 15.0 0.00 0.00 0.00 62 1010.5
20260508062017 62 192 7.0 15.0 0.00 0.00 0.00 62 1010.5
20260508061503 62 174 6.0 11.0 0.00 0.00 0.00 62 1010.4
20260508061003 62 173 6.0 11.0 0.00 0.00 0.00 62 1010.4
20260508060503 62 183 6.0 13.0 0.00 0.00 0.00 62 1010.4
20260508060003 61 196 5.0 13.0 0.00 0.00 0.00 62 1010.5
20260508055503 61 200 5.0 10.0 0.00 0.00 0.00 63 1010.3
20260508055017 61 189 4.0 10.0 0.00 0.00 0.00 62 1010.4
20260508054503 61 211 4.0 10.0 0.00 0.00 0.00 62 1010.3
20260508054017 60 225 4.0 8.0 0.00 0.00 0.00 63 1010.4
20260508053517 60 198 3.0 6.0 0.00 0.00 0.00 65 1010.4
20260508053003 59 171 2.0 6.0 0.00 0.00 0.00 66 1010.3
20260508052517 59 158 1.0 6.0 0.00 0.00 0.00 66 1010.3
20260508052003 59 139 1.0 4.0 0.00 0.00 0.00 66 1010.2
20260508051517 59 134 2.0 4.0 0.00 0.00 0.00 66 1010.2
20260508051003 59 131 1.0 4.0 0.00 0.00 0.00 66 1010.1
20260508050504 59 130 1.0 4.0 0.00 0.00 0.00 66 1010.0
20260508050003 59 171 2.0 5.0 0.00 0.00 0.00 65 1009.9
20260508045503 60 209 2.0 5.0 0.00 0.00 0.00 63 1009.9
20260508045003 60 252 3.0 8.0 0.00 0.00 0.00 62 1010.2
20260508044503 60 236 3.0 8.0 0.00 0.00 0.00 62 1010.1
20260508044017 60 204 3.0 8.0 0.00 0.00 0.00 62 1010.2
20260508043503 60 204 3.0 7.0 0.00 0.00 0.00 62 1010.1
20260508043003 60 208 3.0 6.0 0.00 0.00 0.00 62 1010.2
20260508042503 60 205 3.0 7.0 0.00 0.00 0.00 62 1010.3
20260508042017 60 207 3.0 7.0 0.00 0.00 0.00 62 1010.3
20260508041504 60 206 4.0 8.0 0.00 0.00 0.00 62 1010.1
20260508041003 60 201 4.0 9.0 0.00 0.00 0.00 62 1010.2
20260508040503 60 197 4.0 10.0 0.00 0.00 0.00 61 1010.2
20260508040003 60 210 5.0 10.0 0.00 0.00 0.00 61 1010.1
20260508035517 61 212 5.0 11.0 0.00 0.00 0.00 61 1010.1
20260508035003 61 214 4.0 11.0 0.00 0.00 0.00 61 1010.1
20260508034503 61 210 4.0 8.0 0.00 0.00 0.00 61 1010.2
20260508034003 61 193 5.0 10.0 0.00 0.00 0.00 61 1010.2
20260508033503 61 187 4.0 10.0 0.00 0.00 0.00 61 1010.3
20260508033003 61 192 4.0 9.0 0.00 0.00 0.00 61 1010.3
20260508032503 61 206 4.0 9.0 0.00 0.00 0.00 60 1010.4
20260508032003 61 209 3.0 6.0 0.00 0.00 0.00 60 1010.4
20260508031503 62 199 4.0 8.0 0.00 0.00 0.00 59 1010.4
20260508031017 62 201 4.0 9.0 0.00 0.00 0.00 59 1010.5
20260508030503 62 209 5.0 9.0 0.00 0.00 0.00 60 1010.6
20260508030003 62 218 5.0 9.0 0.00 0.00 0.00 60 1010.6
20260508025503 62 212 4.0 9.0 0.00 0.00 0.00 60 1010.5
20260508025003 61 193 5.0 10.0 0.00 0.00 0.00 61 1010.7
20260508024503 62 191 5.0 12.0 0.00 0.00 0.00 60 1010.5
20260508024003 61 200 6.0 12.0 0.00 0.00 0.00 61 1010.6
20260508023503 61 212 6.0 12.0 0.00 0.00 0.00 62 1010.6
20260508023017 61 224 6.0 11.0 0.00 0.00 0.00 61 1010.6
20260508022503 62 216 6.0 12.0 0.00 0.00 0.00 60 1010.5
20260508022003 62 211 5.0 12.0 0.00 0.00 0.00 61 1010.6
20260508021503 61 224 4.0 11.0 0.00 0.00 0.00 62 1010.7
20260508021003 61 248 3.0 6.0 0.00 0.00 0.00 63 1010.7
20260508020503 60 279 2.0 6.0 0.00 0.00 0.00 65 1010.6
20260508020003 60 293 2.0 4.0 0.00 0.00 0.00 65 1010.6
20260508015503 60 290 1.0 4.0 0.00 0.00 0.00 66 1010.6
20260508015003 60 265 0.0 3.0 0.00 0.00 0.00 65 1010.6
20260508014503 60 159 0.0 2.0 0.00 0.00 0.00 66 1010.6
20260508014003 61 216 1.0 6.0 0.00 0.00 0.00 65 1010.7
20260508013503 61 274 2.0 6.0 0.00 0.00 0.00 65 1010.7
20260508013003 61 283 2.0 4.0 0.00 0.00 0.00 63 1010.7
20260508012503 61 251 2.0 6.0 0.00 0.00 0.00 63 1010.7
20260508012003 61 237 2.0 6.0 0.00 0.00 0.00 62 1010.8
20260508011503 61 231 2.0 4.0 0.00 0.00 0.00 62 1010.7
20260508011003 62 203 2.0 7.0 0.00 0.00 0.00 61 1010.8
20260508010503 62 199 3.0 7.0 0.00 0.00 0.00 59 1010.9
20260508010017 63 187 4.0 10.0 0.00 0.00 0.00 59 1010.9
20260508005503 63 187 4.0 10.0 0.00 0.00 0.00 59 1010.9
20260508005003 63 201 5.0 13.0 0.00 0.00 0.00 59 1011.0
20260508004503 62 204 5.0 13.0 0.00 0.00 0.00 59 1010.9
20260508004003 63 218 5.0 11.0 0.00 0.00 0.00 59 1010.9
20260508003503 63 225 6.0 11.0 0.00 0.00 0.00 59 1010.9
20260508003003 63 202 7.0 14.0 0.00 0.00 0.00 58 1010.9
20260508002503 63 197 7.0 14.0 0.00 0.00 0.00 58 1010.9
20260508002017 62 201 6.0 12.0 0.00 0.00 0.00 59 1010.9
20260508001503 63 194 6.0 12.0 0.00 0.00 0.00 59 1010.9
20260508001003 63 203 6.0 13.0 0.00 0.00 0.00 59 1010.8
20260508000503 63 216 6.0 13.0 0.00 0.00 0.00 58 1010.8
20260508000003 63 202 7.0 14.0 0.00 0.00 0.00 58 1010.8
20260507235517 63 199 7.0 14.0 0.00 0.00 0.00 58 1010.9
20260507235017 63 207 7.0 17.0 0.00 0.00 0.00 57 1011.0
20260507234503 63 201 7.0 17.0 0.00 0.00 0.00 57 1011.0
20260507234003 63 192 7.0 13.0 0.00 0.00 0.00 58 1011.1
20260507233517 63 197 7.0 14.0 0.00 0.00 0.00 58 1011.0
20260507233003 63 199 7.0 14.0 0.00 0.00 0.00 59 1011.0
20260507232503 63 196 6.0 11.0 0.00 0.00 0.00 58 1011.1
20260507232003 63 203 7.0 13.0 0.00 0.00 0.00 57 1011.1
20260507231503 63 224 6.0 14.0 0.00 0.00 0.00 57 1011.2
20260507231003 63 221 5.0 14.0 0.00 0.00 0.00 57 1011.2
20260507230503 63 213 5.0 10.0 0.00 0.00 0.00 57 1011.2
20260507230003 63 212 5.0 12.0 0.00 0.00 0.00 57 1011.3
20260507225503 63 207 5.0 12.0 0.00 0.00 0.00 58 1011.4
20260507225003 63 198 5.0 10.0 0.00 0.00 0.00 59 1011.3
20260507224504 63 205 5.0 10.0 0.00 0.00 0.00 59 1011.4
20260507224003 63 216 5.0 9.0 0.00 0.00 0.00 60 1011.4
20260507223503 63 200 5.0 10.0 0.00 0.00 0.00 60 1011.4
20260507223017 63 199 6.0 10.0 0.00 0.00 0.00 60 1011.3
20260507222503 63 204 6.0 11.0 0.00 0.00 0.00 61 1011.4
20260507222003 63 207 6.0 11.0 0.00 0.00 0.00 62 1011.3
20260507221503 63 213 6.0 10.0 0.00 0.00 0.00 63 1011.2
20260507221003 63 215 5.0 9.0 0.00 0.00 0.00 63 1011.3
20260507220517 63 217 4.0 9.0 0.00 0.00 0.00 63 1011.2
20260507220004 62 231 3.0 9.0 0.00 0.00 0.00 66 1011.3
20260507215503 61 251 2.0 7.0 0.00 0.00 0.00 72 1011.2
20260507215003 61 267 3.0 8.0 0.00 0.00 0.00 71 1011.2
20260507214503 61 282 2.0 8.0 0.00 0.00 0.00 71 1011.2
20260507214017 61 284 2.0 4.0 0.00 0.00 0.00 73 1011.3
20260507213503 61 281 1.0 4.0 0.00 0.00 0.00 73 1011.2
20260507213003 61 284 1.0 4.0 0.00 0.00 0.00 73 1011.2
20260507212503 62 285 1.0 4.0 0.00 0.00 0.00 72 1011.2
20260507212003 62 281 0.0 2.0 0.00 0.00 0.00 72 1011.2
20260507211503 62 281 0.0 2.0 0.00 0.00 0.00 71 1011.2
20260507211003 62 281 0.0 1.0 0.00 0.00 0.00 71 1011.1
20260507210503 62 281 1.0 2.0 0.00 0.00 0.00 71 1011.0
20260507210003 63 281 1.0 3.0 0.00 0.00 0.00 70 1011.0
20260507205503 63 281 1.0 3.0 0.00 0.00 0.00 70 1010.9
20260507205017 63 281 0.0 2.0 0.00 0.00 0.00 69 1010.9
20260507204503 64 281 0.0 1.0 0.00 0.00 0.00 68 1010.8
20260507204003 64 281 0.0 2.0 0.00 0.00 0.00 68 1010.8
20260507203503 64 281 1.0 2.0 0.00 0.00 0.00 66 1010.8
20260507203003 64 280 1.0 3.0 0.00 0.00 0.00 64 1010.6
20260507202503 64 276 2.0 3.0 0.00 0.00 0.00 64 1010.6
20260507202017 64 270 2.0 3.0 0.00 0.00 0.00 64 1010.6
20260507201517 65 264 1.0 3.0 0.00 0.00 0.00 64 1010.5
20260507201003 65 264 2.0 5.0 0.00 0.00 0.00 65 1010.6
20260507200517 65 264 2.0 5.0 0.00 0.00 0.00 65 1010.6
20260507200003 65 260 2.0 4.0 0.00 0.00 0.00 65 1010.4
20260507195517 65 257 2.0 4.0 0.00 0.00 0.00 65 1010.3
20260507195003 65 236 2.0 3.0 0.00 0.00 0.00 66 1010.1
20260507194517 65 204 1.0 3.0 0.00 0.00 0.00 66 1010.0
20260507194003 65 193 1.0 3.0 0.00 0.00 0.00 66 1010.0
20260507193517 65 203 1.0 4.0 0.00 0.00 0.00 65 1009.8
20260507193003 65 235 2.0 4.0 0.00 0.00 0.00 65 1009.8
20260507192503 65 247 2.0 4.0 0.00 0.00 0.00 65 1009.9
20260507192003 66 242 2.0 4.0 0.00 0.00 0.00 64 1009.9
20260507191503 66 191 2.0 4.0 0.00 0.00 0.00 63 1009.9
20260507191003 66 134 1.0 3.0 0.00 0.00 0.00 62 1009.9
20260507190504 67 99 0.0 2.0 0.00 0.00 0.00 63 1010.0
20260507190004 67 99 0.0 2.0 0.00 0.00 0.00 63 1009.9
20260507185503 67 98 0.0 2.0 0.00 0.00 0.00 63 1010.0
20260507185003 68 90 1.0 3.0 0.00 0.00 0.00 61 1009.9
20260507184506 67 98 0.0 3.0 0.00 0.00 0.00 61 1009.7
20260507184504 68 83 1.0 3.0 0.00 0.00 0.00 61 1010.0
20260507184017 68 68 0.0 2.0 0.00 0.00 0.00 62 1009.9
20260507183503 68 77 0.0 2.0 0.00 0.00 0.00 62 1009.9
20260507183057 67 69 0.0 2.0 0.00 0.00 0.00 62 1009.6
20260507183017 68 83 0.0 2.0 0.00 0.00 0.00 62 1010.0
20260507182503 68 82 0.0 2.0 0.00 0.00 0.00 63 1009.9
20260507182017 68 82 0.0 2.0 0.00 0.00 0.00 62 1009.9
20260507181600 67 82 0.0 2.0 0.00 0.00 0.00 61 1009.6
20260507181503 68 83 0.0 2.0 0.00 0.00 0.00 60 1010.0
20260507181017 68 85 1.0 3.0 0.00 0.00 0.00 60 1009.9
20260507180503 68 92 1.0 3.0 0.00 0.00 0.00 59 1009.9
20260507180044 68 101 0.0 3.0 0.00 0.00 0.00 59 1009.4
20260507180003 68 100 0.0 3.0 0.00 0.00 0.00 58 1009.8
20260507175503 69 106 1.0 3.0 0.00 0.00 0.00 59 1009.9
20260507175017 69 149 1.0 6.0 0.00 0.00 0.00 58 1009.8
20260507174547 68 153 0.0 5.0 0.00 0.00 0.00 57 1009.4
20260507174503 68 167 1.0 6.0 0.00 0.00 0.00 58 1009.9
20260507174017 69 171 1.0 4.0 0.00 0.00 0.00 56 1009.8
20260507173503 69 171 0.0 2.0 0.00 0.00 0.00 56 1009.8
20260507173038 69 171 0.0 2.0 0.00 0.00 0.00 58 1009.4
20260507173004 69 171 1.0 2.0 0.00 0.00 0.00 58 1009.8
20260507172503 69 171 1.0 2.0 0.00 0.00 0.00 55 1009.7
20260507172017 69 171 0.0 2.0 0.00 0.00 0.00 57 1009.8
20260507171536 69 171 0.0 2.0 0.00 0.00 0.00 56 1009.4
20260507171517 70 171 0.0 2.0 0.00 0.00 0.00 56 1009.7
20260507171003 70 171 1.0 2.0 0.00 0.00 0.00 57 1009.8
20260507170503 70 171 1.0 4.0 0.00 0.00 0.00 55 1010.0
20260507170017 69 171 0.0 5.0 0.00 0.00 0.00 55 1009.5
20260507170003 70 154 1.0 6.0 0.00 0.00 0.00 55 1009.7
20260507165517 70 99 1.0 6.0 0.00 0.00 0.00 56 1009.9
20260507165003 70 73 1.0 2.0 0.00 0.00 0.00 57 1009.9
20260507164607 70 60 0.0 3.0 0.00 0.00 0.00 57 1009.6
20260507164503 71 136 1.0 3.0 0.00 0.00 0.00 58 1009.9
20260507164003 71 144 2.0 3.0 0.00 0.00 0.00 57 1010.1
20260507163503 71 145 2.0 6.0 0.00 0.00 0.00 56 1009.9
20260507163003 71 141 2.0 8.0 0.00 0.00 0.00 56 1009.8
20260507162503 71 139 2.0 8.0 0.00 0.00 0.00 59 1009.9
20260507162003 70 145 2.0 7.0 0.00 0.00 0.00 59 1009.8
20260507161550 70 194 3.0 5.0 0.00 0.00 0.00 56 1009.4
20260507161503 70 146 2.0 5.0 0.00 0.00 0.00 57 1009.9
20260507161003 71 147 2.0 4.0 0.00 0.00 0.00 58 1009.8
20260507160506 70 145 2.0 7.0 0.00 0.00 0.00 58 1009.8
20260507160045 69 156 2.0 6.0 0.00 0.00 0.00 59 1009.4
20260507160004 70 115 2.0 7.0 0.00 0.00 0.00 59 1009.7
20260507155503 69 96 2.0 4.0 0.00 0.00 0.00 58 1009.8
20260507155003 70 149 2.0 6.0 0.00 0.00 0.00 56 1009.9
20260507154637 70 139 1.0 7.0 0.00 0.00 0.00 56 1009.6
20260507154503 70 171 2.0 8.0 0.00 0.00 0.00 58 1010.1
20260507154003 70 168 2.0 8.0 0.00 0.00 0.00 61 1009.9
20260507153504 70 149 2.0 6.0 0.00 0.00 0.00 62 1010.0
20260507153029 69 129 2.0 5.0 0.00 0.00 0.00 63 1009.7
20260507153003 69 109 2.0 6.0 0.00 0.00 0.00 64 1010.0
20260507152503 68 305 2.0 5.0 0.00 0.00 0.00 65 1010.1
20260507152017 68 305 2.0 5.0 0.00 0.00 0.00 64 1010.1
20260507151603 67 284 1.0 5.0 0.00 0.00 0.00 64 1009.8
20260507151503 68 339 2.0 7.0 0.00 0.00 0.00 65 1010.1